TimeCST,TemperatureF,Dew PointF,Humidity,Sea Level PressureIn,VisibilityMPH,Wind Direction,Wind SpeedMPH,Gust SpeedMPH,PrecipitationIn,Events,Conditions,WindDirDegrees,DateUTC
12:53 AM,14.0,10.0,84,30.45,10.0,East,4.6,-,N/A,,Clear,90,2013-03-06 06:53:00
1:53 AM,14.0,10.0,84,30.43,10.0,East,8.1,-,N/A,,Clear,80,2013-03-06 07:53:00
2:53 AM,12.0,9.0,88,30.42,10.0,East,5.8,-,N/A,,Clear,80,2013-03-06 08:53:00
3:53 AM,10.9,7.0,84,30.41,10.0,East,6.9,-,N/A,,Clear,80,2013-03-06 09:53:00
4:53 AM,10.0,7.0,87,30.42,10.0,East,6.9,-,N/A,,Clear,90,2013-03-06 10:53:00
5:53 AM,10.9,8.1,88,30.41,10.0,ESE,6.9,-,N/A,,Clear,110,2013-03-06 11:53:00
6:53 AM,12.0,10.0,92,30.41,10.0,East,10.4,-,N/A,,Clear,100,2013-03-06 12:53:00
7:33 AM,12.2,10.4,92,30.32,10.0,ESE,10.4,-,N/A,,Partly Cloudy,120,2013-03-06 13:33:00
7:53 AM,14.0,10.9,88,30.41,10.0,ESE,12.7,-,N/A,,Clear,120,2013-03-06 13:53:00
8:02 AM,14.0,10.4,86,30.31,10.0,ESE,12.7,-,N/A,,Partly Cloudy,120,2013-03-06 14:02:00
8:48 AM,14.0,10.4,86,30.31,10.0,ESE,15.0,-,N/A,,Mostly Cloudy,120,2013-03-06 14:48:00
8:53 AM,14.0,12.0,92,30.40,10.0,ESE,12.7,-,N/A,,Mostly Cloudy,120,2013-03-06 14:53:00
9:53 AM,17.1,14.0,88,30.38,10.0,ESE,13.8,-,N/A,,Overcast,120,2013-03-06 15:53:00
10:20 AM,17.6,15.8,93,30.28,10.0,ESE,17.3,-,N/A,,Mostly Cloudy,120,2013-03-06 16:20:00
10:53 AM,19.9,18.0,92,30.35,10.0,ESE,18.4,-,N/A,,Overcast,120,2013-03-06 16:53:00
11:53 AM,24.1,17.1,75,30.31,10.0,SE,21.9,26.5,N/A,,Scattered Clouds,130,2013-03-06 17:53:00
12:53 PM,27.0,17.1,66,30.26,10.0,ESE,20.7,27.6,N/A,,Clear,110,2013-03-06 18:53:00
1:53 PM,30.0,19.0,64,30.23,10.0,ESE,16.1,24.2,N/A,,Clear,120,2013-03-06 19:53:00
2:53 PM,33.1,19.9,59,30.19,10.0,ESE,23.0,-,N/A,,Clear,120,2013-03-06 20:53:00
3:53 PM,33.1,19.9,59,30.16,10.0,ESE,20.7,28.8,N/A,,Clear,120,2013-03-06 21:53:00
4:53 PM,33.1,19.9,59,30.12,10.0,ESE,25.3,31.1,N/A,,Clear,120,2013-03-06 22:53:00
5:53 PM,30.9,19.9,64,30.12,10.0,ESE,24.2,29.9,N/A,,Clear,120,2013-03-06 23:53:00
6:53 PM,28.0,21.0,75,30.12,10.0,ESE,18.4,-,N/A,,Clear,110,2013-03-07 00:53:00
7:53 PM,26.1,19.9,78,30.12,10.0,ESE,20.7,27.6,N/A,,Clear,110,2013-03-07 01:53:00
8:53 PM,26.1,19.9,78,30.11,10.0,ESE,21.9,-,N/A,,Clear,110,2013-03-07 02:53:00
9:53 PM,25.0,21.0,85,30.12,10.0,ESE,18.4,26.5,N/A,,Clear,120,2013-03-07 03:53:00
10:53 PM,25.0,21.0,85,30.10,10.0,ESE,19.6,-,N/A,,Clear,120,2013-03-07 04:53:00
11:53 PM,25.0,21.0,85,30.09,10.0,ESE,15.0,-,N/A,,Clear,110,2013-03-07 05:53:00